Belleville, IL

3:16 AM CDT on May 27, 2017 (GMT -0500)
Scott Air Force Base-Midamerica

Weather History for KBLV - February, 2014

Change the Weather History Date:

Wednesday, February 5, 2014

  Actual Average Record
Temperature  
Mean Temperature 12 °F -  
Max Temperature 23 °F 42 °F 67 °F (1986)
Min Temperature 2 °F 21 °F -10 °F (1979)
Degree Days  
Heating Degree Days 52    
Moisture  
Dew Point 15 °F    
Average Humidity 83    
Maximum Humidity 100    
Minimum Humidity 73    
Precipitation  
Precipitation 0.00 in - - ()
Snow  
Snow 0.00 in - - ()
Snow Depth 3.00 in    
Sea Level Pressure  
Sea Level Pressure 30.31 in    
Wind  
Wind Speed 14 mph (NW)    
Max Wind Speed 23 mph    
Max Gust Speed 28 mph    
Visibility 8 miles    
Events Snow    
Averages and records for this station are not official NWS values.
T = Trace of Precipitation, MM = Missing Value Source: NWS Daily Summary

Daily Weather History Graph

Daily Weather History Graph

Search for Another Location

Airport or City:

Trip Planner

Search our weather history database for the weather conditions in past years. The results will help you decide how hot, cold, wet, or windy it might be!

Date:

Astronomy

Feb. 05, 2014 Rise Set
Actual Time 7:01 AM CST 5:26 PM CST
Civil Twilight 6:33 AM CST 5:53 PM CST
Nautical Twilight 6:01 AM CST 6:25 PM CST
Astronomical Twilight 5:30 AM CST 6:56 PM CST
Moon 10:20 AM CST (2/5) No Moon Set
Length of Visible Light 11h 20m
Length of Day
10h 25m
Waxing Crescent, 39% of the Moon is Illuminated
Feb 5
Waxing Crescent
Feb 6
First Quarter
Feb 14
Full
Feb 22
Last Quarter
Mar 1
New

Hourly Weather History & Observations

Time (CST) Temp. Windchill Dew Point Humidity Pressure Visibility Wind Dir Wind Speed Gust Speed Precip Events Conditions
12:08 AM 23.0 °F 10.6 °F 23.0 °F 100% 29.92 in 2.5 mi North 13.8 mph 21.9 mph N/A Snow Light Snow
12:23 AM 23.0 °F 11.7 °F 23.0 °F 100% 29.93 in 3.0 mi North 11.5 mph - N/A   Overcast
12:58 AM 22.3 °F 9.7 °F 21.7 °F 98% 29.96 in 4.0 mi North 13.8 mph - 0.00 in   Light Freezing Rain
12:59 AM 23.0 °F 11.1 °F 21.2 °F 93% 29.94 in 5.0 mi North 12.7 mph - N/A   Overcast
1:58 AM 21.9 °F 9.8 °F 20.1 °F 93% 29.98 in 7.0 mi NNW 12.7 mph - 0.00 in   Overcast
2:54 AM 21.2 °F 8.9 °F 19.4 °F 93% 29.96 in 7.0 mi North 12.7 mph - N/A Snow Light Snow
2:58 AM 21.6 °F 8.8 °F 18.7 °F 89% 29.99 in 7.0 mi North 13.8 mph - 0.00 in Snow Light Snow
3:22 AM 21.2 °F 8.3 °F 19.4 °F 93% 29.98 in 7.0 mi NNW 13.8 mph - N/A   Mostly Cloudy
3:26 AM 21.2 °F 10.1 °F 19.4 °F 93% 29.98 in 7.0 mi NNW 10.4 mph - N/A Snow Light Snow
3:46 AM 21.2 °F 9.5 °F 19.4 °F 93% 30.00 in 6.0 mi NW 11.5 mph - N/A Snow Light Snow
3:56 AM 21.2 °F 11.7 °F 19.4 °F 93% 30.00 in 3.0 mi NW 8.1 mph - N/A Snow Light Snow
3:58 AM 21.4 °F 11.1 °F 19.9 °F 94% 30.03 in 3.0 mi NW 9.2 mph - 0.00 in Snow Light Snow
4:03 AM 21.2 °F 9.5 °F 21.2 °F 100% 30.01 in 2.5 mi NW 11.5 mph - N/A Snow Light Snow
4:08 AM 21.2 °F 11.7 °F 21.2 °F 100% 30.01 in 2.0 mi NW 8.1 mph - N/A Snow Light Snow
4:13 AM 21.2 °F 11.7 °F 21.2 °F 100% 30.01 in 2.5 mi WNW 8.1 mph - N/A Snow Light Snow
4:18 AM 21.2 °F 10.9 °F 21.2 °F 100% 30.01 in 3.0 mi NW 9.2 mph - N/A Snow Light Snow
4:28 AM 21.2 °F 11.7 °F 21.2 °F 100% 30.02 in 2.5 mi WNW 8.1 mph - N/A Snow Light Snow
4:58 AM 21.4 °F 11.1 °F 20.8 °F 98% 30.06 in 3.0 mi WNW 9.2 mph - 0.00 in Snow Light Snow
5:03 AM 21.2 °F 11.7 °F 21.2 °F 100% 30.03 in 3.0 mi WNW 8.1 mph - N/A Snow Light Snow
5:58 AM 21.2 °F 8.9 °F 20.5 °F 97% 30.09 in 4.0 mi NW 12.7 mph - 0.00 in Snow Light Snow
6:58 AM 20.7 °F 6.1 °F 19.2 °F 94% 30.15 in 4.0 mi NW 17.3 mph 23.0 mph 0.00 in Snow Light Snow
7:05 AM 21.2 °F 6.0 °F 19.4 °F 93% 30.13 in 2.5 mi NW 19.6 mph 23.0 mph N/A Snow Light Snow
7:22 AM 21.2 °F 7.3 °F 17.6 °F 86% 30.15 in 2.5 mi NW 16.1 mph 23.0 mph N/A Snow Light Snow
7:47 AM 19.4 °F 6.0 °F 17.6 °F 93% 30.17 in 3.0 mi NW 13.8 mph 23.0 mph N/A Snow Light Snow
7:58 AM 20.3 °F 6.1 °F 17.8 °F 90% 30.21 in 6.0 mi NW 16.1 mph 20.7 mph 0.00 in Snow Light Snow
8:08 AM 21.2 °F 9.5 °F 17.6 °F 86% 30.19 in 5.0 mi NW 11.5 mph 23.0 mph N/A Snow Light Snow
8:11 AM 21.2 °F 7.8 °F 17.6 °F 86% 30.19 in 8.0 mi NW 15.0 mph 23.0 mph N/A   Overcast
8:58 AM 21.2 °F 7.3 °F 17.6 °F 86% 30.26 in 9.0 mi NW 16.1 mph - 0.00 in   Mostly Cloudy
9:08 AM 21.2 °F 6.8 °F 17.6 °F 86% 30.23 in 9.0 mi NW 17.3 mph 23.0 mph N/A   Mostly Cloudy
9:54 AM 21.2 °F 6.8 °F 17.6 °F 86% 30.27 in 10.0 mi NW 17.3 mph 23.0 mph N/A   Overcast
9:58 AM 22.1 °F 8.0 °F 18.3 °F 85% 30.30 in 10.0 mi NW 17.3 mph 25.3 mph 0.00 in   Overcast
10:19 AM 23.0 °F 8.0 °F 17.6 °F 80% 30.29 in 10.0 mi NW 20.7 mph 23.0 mph N/A   Mostly Cloudy
10:20 AM 23.0 °F 8.7 °F 17.6 °F 80% 30.29 in 9.0 mi NW 18.4 mph 23.0 mph N/A Snow Light Snow
10:25 AM 21.2 °F 6.0 °F 17.6 °F 86% 30.32 in 3.0 mi NW 19.6 mph 23.0 mph N/A Snow Blowing Snow
10:44 AM 23.0 °F 7.2 °F 17.6 °F 80% 30.31 in 8.0 mi NW 23.0 mph 27.6 mph N/A   Mostly Cloudy
10:49 AM 23.0 °F 8.7 °F 17.6 °F 80% 30.31 in 8.0 mi NW 18.4 mph 27.6 mph N/A   Mostly Cloudy
10:58 AM 22.5 °F 8.0 °F 18.1 °F 83% 30.33 in 9.0 mi NW 18.4 mph 25.3 mph 0.00 in   Mostly Cloudy
11:01 AM 23.0 °F 10.1 °F 17.6 °F 80% 30.30 in 9.0 mi NW 15.0 mph 25.3 mph N/A Snow Light Snow
11:11 AM 23.0 °F 9.2 °F 17.6 °F 80% 30.31 in 10.0 mi NW 17.3 mph - N/A   Mostly Cloudy
11:31 AM 23.0 °F 9.2 °F 17.6 °F 80% 30.31 in 10.0 mi NW 17.3 mph - N/A   Overcast
11:45 AM 23.0 °F 9.2 °F 17.6 °F 80% 30.32 in 10.0 mi NW 17.3 mph 24.2 mph N/A   Overcast
11:48 AM 23.0 °F 9.6 °F 17.6 °F 80% 30.32 in 10.0 mi NW 16.1 mph 24.2 mph N/A   Overcast
11:55 AM 22.6 °F 9.6 °F 17.8 °F 82% 30.35 in 10.0 mi NW 15.0 mph 21.9 mph 0.00 in Snow Light Snow
11:58 AM 22.6 °F 9.2 °F 17.8 °F 82% 30.35 in 10.0 mi NW 16.1 mph 21.9 mph 0.00 in   Overcast
12:55 PM 21.9 °F 6.9 °F 16.7 °F 80% 30.36 in 10.0 mi NW 19.6 mph 24.2 mph 0.00 in   Overcast
12:58 PM 21.9 °F 8.7 °F 16.7 °F 80% 30.36 in 10.0 mi NW 15.0 mph 24.2 mph 0.00 in   Overcast
1:22 PM 21.2 °F 7.3 °F 15.8 °F 80% 30.33 in 10.0 mi NW 16.1 mph - N/A   Overcast
1:27 PM 21.2 °F 8.9 °F 15.8 °F 80% 30.33 in 10.0 mi NW 12.7 mph - N/A   Overcast
1:55 PM 21.7 °F 7.5 °F 15.8 °F 78% 30.37 in 10.0 mi NW 17.3 mph - 0.00 in   Overcast
1:58 PM 21.7 °F 7.1 °F 15.8 °F 78% 30.38 in 10.0 mi NW 18.4 mph - 0.00 in   Overcast
2:03 PM 21.2 °F 6.8 °F 15.8 °F 80% 30.34 in 10.0 mi NW 17.3 mph - N/A   Overcast
2:09 PM 21.2 °F 7.8 °F 15.8 °F 80% 30.35 in 10.0 mi NW 15.0 mph - N/A   Overcast
2:19 PM 21.2 °F 6.4 °F 15.8 °F 80% 30.35 in 10.0 mi NW 18.4 mph 24.2 mph N/A   Overcast
2:20 PM 21.2 °F 6.4 °F 15.8 °F 80% 30.38 in 10.0 mi NW 18.4 mph 24.2 mph N/A   Overcast
2:43 PM 21.2 °F 7.3 °F 14.0 °F 74% 30.36 in 10.0 mi NW 16.1 mph 21.9 mph N/A   Overcast
2:55 PM 21.0 °F 6.6 °F 15.3 °F 78% 30.40 in 10.0 mi NW 17.3 mph - 0.00 in   Overcast
2:58 PM 21.0 °F 5.7 °F 15.3 °F 78% 30.40 in 10.0 mi NW 19.6 mph 23.0 mph 0.00 in Snow Light Snow
3:04 PM 21.2 °F 8.3 °F 14.0 °F 74% 30.38 in 10.0 mi NW 13.8 mph 23.0 mph N/A   Overcast
3:47 PM 21.2 °F 7.3 °F 14.0 °F 74% 30.41 in 10.0 mi NW 16.1 mph - N/A   Overcast
3:58 PM 20.7 °F 8.2 °F 14.0 °F 75% 30.45 in 10.0 mi NW 12.7 mph - 0.00 in   Overcast
4:04 PM 19.4 °F 7.2 °F 14.0 °F 80% 30.42 in 10.0 mi WNW 11.5 mph - N/A   Overcast
4:20 PM 19.4 °F 7.2 °F 14.0 °F 80% 30.43 in 10.0 mi WNW 11.5 mph - N/A Snow Light Snow
4:51 PM 19.4 °F 5.5 °F 12.2 °F 74% 30.44 in 10.0 mi NW 15.0 mph 20.7 mph N/A   Overcast
4:58 PM 18.9 °F 6.5 °F 12.7 °F 77% 30.48 in 10.0 mi NW 11.5 mph - 0.00 in   Overcast
5:08 PM 19.4 °F 6.0 °F 12.2 °F 74% 30.44 in 10.0 mi NW 13.8 mph - N/A   Overcast
5:48 PM 17.6 °F 3.7 °F 10.4 °F 73% 30.46 in 10.0 mi NNW 13.8 mph - N/A   Mostly Cloudy
5:58 PM 17.6 °F 3.7 °F 10.4 °F 73% 30.51 in 10.0 mi NNW 13.8 mph - N/A   Scattered Clouds
6:58 PM 17.6 °F 6.4 °F 10.4 °F 73% 30.53 in 10.0 mi NW 9.2 mph - N/A   Overcast
7:58 PM 17.6 °F 3.7 °F 10.4 °F 73% 30.55 in 10.0 mi NNW 13.8 mph - N/A   Overcast
8:13 PM 17.6 °F 3.7 °F 10.4 °F 73% 30.52 in 10.0 mi NNW 13.8 mph - N/A   Overcast
8:33 PM 15.8 °F 3.4 °F 10.4 °F 79% 30.53 in 10.0 mi NNW 10.4 mph - N/A   Overcast
8:58 PM 15.8 °F 2.1 °F 8.6 °F 73% 30.57 in 10.0 mi NNW 12.7 mph - N/A   Overcast
9:58 PM 15.8 °F 3.4 °F 8.6 °F 73% 30.58 in 10.0 mi NW 10.4 mph - N/A   Overcast
10:03 PM 15.8 °F 2.7 °F 8.6 °F 73% 30.55 in 10.0 mi NW 11.5 mph - N/A Snow Light Snow
10:08 PM 15.8 °F 5.1 °F 8.6 °F 73% 30.55 in 10.0 mi NW 8.1 mph - N/A Snow Light Snow
10:17 PM 15.8 °F 3.4 °F 8.6 °F 73% 30.55 in 10.0 mi NW 10.4 mph - N/A   Overcast
10:20 PM 15.8 °F 3.4 °F 8.6 °F 73% 30.55 in 10.0 mi NW 10.4 mph - N/A Snow Light Snow
10:25 PM 15.8 °F 4.2 °F 8.6 °F 73% 30.56 in 10.0 mi NW 9.2 mph - N/A Snow Light Snow
10:58 PM 14.0 °F -0.2 °F 8.6 °F 79% 30.56 in 10.0 mi NW 12.7 mph - N/A Snow Light Snow
11:13 PM 14.0 °F -0.2 °F 8.6 °F 79% 30.56 in 10.0 mi NW 12.7 mph - N/A   Overcast
11:19 PM 14.0 °F -0.2 °F 8.6 °F 79% 30.56 in 10.0 mi NW 12.7 mph - N/A Snow Light Snow
11:20 PM 14.0 °F -0.8 °F 8.6 °F 79% 30.56 in 10.0 mi NNW 13.8 mph - N/A   Overcast
11:21 PM 14.0 °F -0.2 °F 8.6 °F 79% 30.56 in 10.0 mi NW 12.7 mph - N/A Snow Light Snow
11:53 PM 14.0 °F 0.5 °F 8.6 °F 79% 30.57 in 10.0 mi NW 11.5 mph - N/A   Overcast
11:55 PM 2.7 °F -10.9 °F -4.2 °F 73% 30.62 in 7.0 mi NW 8.1 mph - N/A   Clear
11:56 PM 14.0 °F 0.5 °F 8.6 °F 79% 30.57 in 10.0 mi NW 11.5 mph - N/A Snow Light Snow
11:58 PM 14.0 °F -0.2 °F 8.6 °F 79% 30.57 in 10.0 mi NW 12.7 mph - N/A Snow Light Snow